カタログに戻る

CARTOSAT 2A

運用中科学SSO
NORAD 32783·PAYLOAD·🇮🇳 India

打ち上げ Apr 28, 2008 から Satish Dhawan Space Centre

Loading…

次のパス (今後24時間)

TLE

最新Source: Space-Track

元期: Sep 14, 2026, 14:29 UTC

1 32783U 08021A   26257.60366243  .00000118  00000-0  22520-4 0  9991
2 32783  97.7549 303.2251 0011718 173.6962 186.4399 14.79326402992024

AllMySatでCARTOSAT 2Aをリアルタイム追跡

Download on the App Store